SCP
1 1 1 1 1 1 1 1 1 1 1 0 0 0 0 0 0 0 0 0 0 0 0 0 1 1 0 0 0 0 0 0 0 0 0 0 0 0 0 0 0 0 0
1 1 1 1 1 1 1 1 1 1 1 1 0 0 0 0 0 0 0 0 0 0 0 0 0 0 0 0 0 0 0 0 0 0 0 0 0 0 0 0 0 0 0
1 1 1 1 0 1 1 1 1 1 1 1 0 0 0 0 0 0 0 0 0 0 0 0 0 0 0 0 0 0 0 0 0 0 0 0 0 0 0 0 0 0 0
1 1 1 1 1 1 0 0 1 1 1 1 1 0 0 0 0 0 0 0 0 0 0 0 0 0 0 0 0 0 0 0 0 0 0 0 0 0 0 0 0 0 0
1 1 1 1 1 1 1 0 0 1 1 1 1 0 0 0 0 0 0 0 0 0 0 0 0 0 0 0 0 0 0 0 0 0 0 0 0 0 0 0 0 0 0
1 1 1 1 1 1 1 1 1 1 1 1 1 1 0 0 0 0 0 0 0 0 0 0 0 0 0 0 0 0 0 0 0 0 0 0 0 0 0 0 0 0 0
1 1 2 1 2 2 2 1 1 1 1 1 1 1 0 0 0 0 0 0 0 0 0 0 0 0 0 0 0 0 0 0 0 0 0 0 0 0 0 0 0 0 0
1 1 2 2 2 2 2 2 1 1 1 1 1 1 0 0 0 0 0 0 0 0 0 0 0 0 0 0 0 0 0 0 0 0 0 0 0 0 0 0 0 0 0
1 1 2 2 2 2 2 2 2 1 1 1 1 1 1 0 0 0 0 0 0 0 0 0 0 0 0 0 0 0 0 0 0 0 0 0 0 0 0 0 0 0 0
1 1 2 2 2 1 2 2 2 1 1 1 1 1 1 1 0 0 0 0 0 0 0 0 0 0 0 0 0 0 0 0 0 0 0 0 0 0 0 0 0 0 0
1 1 2 1 1 1 1 1 1 1 1 1 1 1 1 1 1 1 1 0 0 0 0 0 0 0 0 0 0 0 0 0 0 0 0 0 0 0 0 0 0 0 0
1 1 1 1 1 1 1 1 1 1 1 1 1 1 1 1 1 1 1 0 0 0 0 0 0 0 0 0 0 0 0 0 0 0 0 0 0 0 0 0 0 0 0
1 1 1 1 1 1 1 1 1 1 1 1 1 1 1 1 1 1 1 0 0 0 0 0 0 0 0 0 0 0 0 0 0 0 0 0 0 0 0 0 0 0 0
1 1 1 1 1 1 1 1 1 1 1 1 1 1 1 1 1 1 1 0 0 0 0 0 0 0 0 0 0 0 0 0 0 0 0 0 0 0 0 0 0 0 0
1 1 1 1 1 1 1 1 1 1 1 1 1 1 1 1 1 1 1 1 0 0 0 0 0 0 0 0 0 0 0 0 0 0 0 0 0 0 0 0 0 0 0
1 1 1 1 1 1 1 1 1 2 2 2 2 2 2 2 2 1 1 1 0 0 0 0 0 0 0 0 0 0 0 0 0 0 0 0 0 0 0 0 0 0 0
1 1 1 1 1 1 1 1 1 2 2 2 2 2 2 2 2 2 1 1 1 1 1 1 1 1 0 0 0 0 0 0 0 0 0 0 0 0 0 0 0 0 0
1 1 1 1 1 1 1 1 1 1 1 1 1 2 2 2 2 1 1 1 1 1 1 1 1 1 0 0 0 0 0 0 0 0 0 0 0 0 0 0 0 0 0
1 1 1 0 0 1 1 1 1 1 1 1 1 1 2 2 2 1 1 1 1 1 2 2 1 1 0 0 0 0 0 0 0 0 0 0 0 0 0 0 0 0 0
2 1 1 1 0 1 1 1 1 1 1 1 1 2 2 2 2 1 1 1 1 1 1 1 1 1 0 0 0 0 0 0 0 0 0 0 0 0 0 0 0 0 0
2 2 1 1 1 1 1 1 1 1 1 1 1 1 2 2 2 1 1 1 1 1 1 0 0 0 0 0 0 0 0 0 0 0 0 0 0 0 0 0 0 0 0
2 2 1 1 1 1 1 1 1 1 1 1 1 1 2 2 1 1 1 1 1 1 1 0 0 0 0 0 0 0 0 0 0 0 0 0 0 0 0 0 0 0 0
2 2 1 1 1 1 1 1 1 2 2 2 1 2 2 2 1 1 1 1 1 1 1 0 0 0 0 0 0 0 0 0 0 0 0 0 0 0 0 0 0 0 0
2 2 1 1 1 1 1 1 2 2 2 2 2 2 2 1 1 1 1 1 1 1 1 0 0 0 0 0 0 0 0 0 0 0 0 0 0 0 0 0 0 0 0
2 1 1 1 1 1 1 1 1 1 2 2 2 1 1 1 1 1 1 1 1 1 1 0 0 0 0 0 0 0 0 0 0 0 0 0 0 0 0 0 0 0 0
2 1 1 1 1 1 1 1 1 1 1 1 1 1 1 0 0 1 1 1 1 1 0 0 0 0 0 0 0 0 0 0 0 0 0 0 0 0 0 0 0 0 0
Wind_Speed
9 7 6 6 6 6 7 7 6 5 4 2 2 2 2 2 2 2 4 3 4 4 3 3 4 4 3 2 3 2 2 2 2 3 2 2 3 3 3 3 3 4 4
9 8 7 6 6 6 6 6 6 5 5 3 2 2 2 2 2 2 3 2 3 3 3 3 3 3 2 4 3 3 2 1 2 2 1 2 3 3 3 3 3 4 4
11 10 9 7 6 6 6 6 6 6 6 5 2 2 2 2 2 2 2 3 3 4 3 3 2 2 2 2 2 2 2 1 2 2 1 1 1 0 2 3 3 3 3
9 9 9 9 7 6 5 6 6 6 5 5 3 3 3 2 2 2 2 2 3 4 3 3 3 3 3 3 2 3 2 2 1 2 2 2 2 2 1 2 3 4 5
9 9 9 9 8 7 5 5 5 5 5 5 4 3 3 2 2 2 3 3 3 3 3 3 3 3 3 3 4 4 4 2 2 1 2 2 2 1 2 1 1 2 2
8 8 8 8 8 6 5 5 5 4 4 5 4 4 4 4 4 3 2 2 2 2 2 2 2 3 2 3 3 3 3 3 3 2 2 2 2 2 1 1 1 2 1
9 9 9 9 8 8 6 6 6 5 4 5 5 5 4 4 4 3 2 2 2 1 2 2 2 2 2 3 2 3 2 2 2 2 2 2 2 2 2 2 1 1 1
8 8 8 8 8 8 7 7 6 6 5 5 4 5 5 2 2 3 3 2 2 2 2 3 3 3 3 3 3 3 3 3 3 3 2 2 3 3 2 2 2 2 1
7 8 9 8 9 9 8 7 7 6 6 5 4 4 4 3 3 3 3 2 2 2 3 3 4 3 4 3 3 3 3 3 4 3 3 2 2 3 3 2 2 2 2
7 8 8 9 9 8 7 7 7 7 6 5 4 4 4 4 3 2 3 3 3 3 3 3 4 3 3 4 4 3 2 3 3 2 3 3 2 3 2 2 3 2 2
7 8 7 7 8 8 7 7 6 6 6 6 5 5 4 4 4 3 3 3 3 3 3 3 4 4 3 3 3 2 2 3 2 2 3 3 3 2 2 3 3 3 2
7 7 7 7 7 8 8 8 7 6 6 5 5 5 4 4 4 3 4 3 3 2 3 3 4 4 3 3 3 2 2 2 2 2 2 2 2 2 2 2 3 2 2
7 7 7 7 7 7 7 7 7 7 6 5 6 5 5 5 4 4 3 3 3 3 3 3 3 3 3 2 2 2 2 2 2 3 3 3 2 2 2 2 2 2 2
6 7 7 6 6 7 6 7 7 7 7 6 5 5 5 5 4 4 3 3 3 3 3 3 3 3 3 3 2 2 2 3 3 3 3 4 4 3 3 3 3 3 2
5 7 7 6 6 6 6 6 7 7 7 7 5 5 5 5 5 4 3 3 2 3 3 3 3 3 3 3 3 2 2 2 2 2 3 4 5 7 5 4 3 3 2
5 6 6 7 7 8 7 7 7 7 7 7 6 5 5 5 5 4 4 3 3 3 4 4 4 3 3 6 7 4 2 2 2 2 3 3 4 6 6 6 5 4 2
5 6 6 6 6 7 8 8 8 7 7 7 7 6 6 6 5 5 4 4 3 3 4 3 4 4 4 5 5 5 3 2 2 1 2 2 3 4 2 3 4 4 4
5 5 5 5 5 5 6 7 7 7 7 7 7 7 6 6 5 5 5 4 4 3 3 4 4 4 3 4 3 4 2 1 2 2 2 2 3 3 3 1 2 2 3
4 5 4 5 5 5 6 7 7 7 6 6 7 7 7 6 6 6 5 4 4 3 3 4 4 4 3 3 2 2 1 1 1 2 3 3 3 4 5 3 2 2 2
4 4 4 5 5 5 6 7 6 6 6 6 6 7 7 7 6 6 5 4 4 3 3 3 3 4 3 3 2 1 0 1 1 1 3 5 4 4 5 2 2 2 2
4 4 4 4 4 5 6 6 6 6 6 5 5 6 6 6 6 5 5 5 4 4 3 4 3 4 4 4 3 2 1 1 1 1 1 2 4 4 4 3 1 1 2
4 4 4 3 3 4 6 5 5 6 6 6 5 5 5 5 5 6 5 4 4 4 4 3 3 3 3 4 3 2 1 2 1 1 1 2 2 2 2 2 2 3 3
4 4 5 4 3 3 5 6 5 6 7 7 6 5 6 5 5 5 5 4 3 3 3 3 3 3 3 2 4 3 1 1 1 1 2 1 0 0 1 1 2 2 1
4 4 4 4 3 3 3 4 6 7 7 7 6 5 5 5 5 4 4 4 3 3 2 2 2 2 3 2 2 1 1 1 2 1 1 1 1 0 1 1 1 1 1
3 3 4 4 4 3 3 4 5 6 7 6 6 5 5 5 5 4 3 4 3 4 4 3 3 3 3 3 4 3 2 1 1 1 1 0 0 0 1 1 1 0 1
4 4 4 4 4 4 3 4 5 6 6 6 5 4 4 4 5 5 4 5 4 6 6 5 4 3 4 6 6 4 3 3 3 2 1 0 0 0 0 0 1 1 1
Wind_Direction
167 160 160 152 153 152 143 138 139 133 124 110 100 93 81 71 59 60 56 39 39 39 51 53 60 54 53 48 65 59 54 41 58 65 47 44 49 60 53 46 51 52 55
163 161 160 157 158 152 144 145 144 142 132 127 129 127 118 101 87 59 52 37 47 47 53 71 77 84 69 46 49 54 41 29 60 83 79 48 19 15 58 61 62 58 49
166 163 167 161 158 157 159 155 155 146 140 141 122 108 84 77 89 82 53 29 45 44 32 54 72 81 92 80 56 70 66 20 16 60 87 115 139 358 23 52 68 62 55
164 164 167 162 166 161 156 155 157 147 141 137 132 138 131 124 116 114 109 75 57 52 34 44 56 65 73 74 46 57 58 58 19 10 22 49 107 121 74 23 58 64 61
162 165 165 161 162 158 155 152 150 146 143 139 138 139 119 120 111 108 103 96 77 65 51 43 52 61 70 71 62 50 36 46 45 33 23 18 11 35 110 112 73 61 64
165 166 161 154 152 148 149 142 138 137 136 140 149 144 133 125 114 103 101 99 89 65 67 70 66 64 70 69 67 72 61 48 43 31 39 48 32 5 53 100 121 110 84
170 167 158 155 150 149 151 146 144 144 146 156 160 148 142 140 133 129 117 106 100 77 62 60 66 64 72 75 66 66 74 71 67 53 33 33 29 26 42 69 72 96 123
171 164 156 154 152 154 157 153 153 155 162 170 165 151 141 136 136 135 126 117 116 121 106 77 68 59 59 67 61 61 52 55 63 69 62 41 26 32 39 56 72 58 48
162 157 156 158 156 157 159 162 159 159 164 170 164 152 146 141 138 134 126 122 116 115 107 99 89 70 63 62 66 66 56 54 40 38 47 53 45 33 24 26 52 100 81
160 159 160 158 158 158 162 161 160 162 160 162 163 150 143 139 129 130 133 122 115 101 96 100 102 92 78 70 60 64 57 80 67 47 43 42 37 32 25 22 23 47 94
161 156 152 153 152 154 158 157 162 159 160 162 155 148 147 140 131 128 126 122 116 120 122 120 111 103 94 91 81 73 48 66 73 67 76 62 48 35 17 27 32 31 61
149 145 147 149 152 159 164 165 165 160 158 155 146 149 153 145 141 143 137 134 130 125 124 119 112 108 102 102 108 103 81 70 64 60 77 83 74 51 27 31 32 32 39
148 144 147 152 157 163 166 165 162 157 155 149 149 157 157 153 151 141 134 138 134 132 131 121 116 114 114 110 105 107 95 74 60 53 55 50 61 47 35 42 34 29 37
152 147 148 155 158 162 164 162 159 155 155 154 158 162 158 153 146 135 129 136 131 133 129 117 111 107 91 77 70 81 89 88 78 63 57 50 55 45 36 39 28 35 37
148 147 155 157 157 160 165 164 159 158 159 160 164 163 151 143 137 133 135 131 132 135 123 108 95 88 81 60 52 34 55 85 99 89 85 81 81 69 62 55 34 33 32
157 156 161 161 167 167 167 160 156 161 160 162 163 154 144 138 141 145 140 127 121 113 108 107 103 88 76 67 56 38 14 40 78 102 109 114 102 86 77 68 58 54 54
159 161 167 167 171 172 169 163 161 156 160 159 156 151 145 146 153 150 137 135 129 116 113 113 106 99 92 82 61 31 7 24 29 68 102 94 88 89 87 70 53 36 31
160 162 166 162 167 165 159 154 153 156 161 158 156 153 151 153 156 148 151 155 143 138 136 126 118 114 111 96 70 18 354 23 26 37 69 96 89 61 53 72 62 44 21
154 157 161 157 167 165 159 152 154 156 156 157 159 157 155 153 154 155 158 152 142 139 138 136 135 128 127 126 90 16 352 70 48 48 49 70 82 51 40 58 58 51 4
139 142 147 153 161 160 154 150 154 154 159 160 160 157 151 150 156 163 158 144 137 138 131 128 132 133 136 142 120 43 360 120 92 68 72 73 79 59 47 56 57 28 336
120 127 133 142 151 152 147 151 156 160 157 151 152 150 147 150 155 155 147 141 142 145 143 143 139 136 143 148 141 105 48 21 84 86 74 65 76 64 43 40 50 338 333
114 124 122 118 131 145 148 155 156 152 142 141 143 142 141 147 147 142 141 145 149 154 154 150 145 135 131 130 139 128 101 42 50 84 101 105 98 55 20 16 347 346 353
115 121 123 121 124 141 151 155 149 139 137 139 142 145 143 138 137 141 145 148 149 154 156 151 149 137 127 129 138 151 127 46 62 51 105 128 150 83 331 315 324 341 349
108 113 117 123 129 133 126 139 142 142 139 140 142 141 140 136 136 135 139 145 150 154 155 152 151 141 126 116 129 144 134 88 81 72 101 148 236 271 277 302 293 260 260
106 113 123 126 127 121 123 125 132 141 142 143 142 140 139 141 135 131 131 146 149 157 155 156 152 147 152 173 158 151 163 165 156 126 122 68 317 303 297 298 316 336 356
119 117 112 117 127 125 117 118 130 136 139 142 141 137 136 140 140 134 112 75 107 123 126 123 128 134 140 147 149 155 157 154 134 117 138 208 210 221 244 337 321 327 336